Theta_e
350 349 349 349 349 349 348 348 345 343 342 341 339 337 336 336 334 336 336 334 330 329 330 332 332 332 331 331 332 334 336 338 339 340 340 339 339 338 338 338 338 337 336 337 338 339 340 340 339 338 338 337 334 331 328 326 325 325 327 330 331 334 335 337 337 332 328 329 328 328 329 330 330 329 328 329 329 330 330 330 330 331 332 332 332
350 349 350 349 349 349 349 349 347 345 343 341 339 338 337 335 334 335 335 332 330 329 329 331 332 332 331 330 331 333 334 335 338 339 339 339 338 338 338 338 337 336 335 335 336 336 337 338 337 337 338 338 337 337 336 333 330 328 327 328 329 330 332 334 335 334 329 328 328 329 329 330 330 329 328 327 327 328 329 330 330 330 331 332 332
349 349 350 350 350 350 350 350 349 347 345 342 340 339 338 336 335 335 333 332 331 330 329 329 330 331 331 330 331 332 333 334 335 337 336 336 336 336 336 336 336 336 334 334 334 334 335 335 335 336 337 337 336 336 337 337 336 334 332 331 330 330 330 332 333 334 331 328 328 329 329 330 330 330 329 329 328 328 328 328 329 331 331 332 332
350 350 350 350 350 350 351 351 350 349 348 344 341 339 338 337 336 335 333 332 332 331 330 329 329 329 330 330 330 331 332 333 333 333 334 334 334 334 334 335 335 334 333 332 332 333 333 333 334 334 336 336 336 336 336 335 336 336 336 335 334 334 332 332 332 332 332 331 329 328 328 329 329 329 330 331 330 328 327 327 328 329 329 330 331
351 350 351 350 351 351 351 351 351 350 349 347 344 341 339 338 337 336 334 334 333 332 331 330 330 329 329 328 329 329 331 331 332 332 331 332 332 333 334 334 333 333 333 333 333 333 332 332 332 333 334 335 335 335 336 336 336 336 336 336 336 336 335 335 334 333 333 333 331 330 331 330 330 329 328 330 330 329 327 326 326 326 327 329 329
352 352 352 351 352 352 352 352 352 352 350 348 346 342 341 339 338 336 335 334 333 332 332 331 330 329 328 328 328 329 330 330 330 330 331 331 332 332 332 332 333 333 333 333 334 334 334 334 333 333 334 334 333 333 334 335 336 336 336 336 336 336 336 337 336 336 335 335 334 333 333 332 332 330 330 329 330 329 328 327 327 326 327 327 327
352 352 352 353 353 353 352 353 353 352 352 350 348 345 342 340 339 336 336 334 333 332 331 331 331 329 328 328 328 329 329 329 329 330 330 331 331 332 332 332 332 332 333 333 334 334 335 334 335 335 334 335 334 335 334 335 335 335 335 335 336 336 336 336 337 337 337 337 337 336 335 334 334 333 332 332 331 330 329 327 326 325 325 325 325
353 353 353 353 353 353 352 352 353 353 353 352 350 348 344 342 340 337 336 335 334 332 332 331 330 329 329 328 328 328 329 329 330 329 330 330 331 331 331 331 331 332 332 333 334 335 335 335 336 336 336 335 335 335 336 336 337 336 337 336 336 336 336 335 336 336 337 337 337 337 336 336 336 335 334 334 333 332 330 329 327 325 325 325 325
354 355 355 354 353 353 353 354 354 354 355 354 353 351 348 345 343 340 338 337 335 334 333 331 331 330 329 328 328 328 329 329 329 330 330 330 330 331 331 332 332 332 332 333 335 336 336 336 336 336 337 337 337 337 337 338 339 339 338 338 338 339 338 338 338 338 338 337 337 337 337 336 336 336 336 335 334 334 333 332 331 330 329 327 326
355 355 355 355 354 354 354 354 354 355 354 355 354 353 351 348 346 344 341 339 337 335 335 334 333 331 330 329 329 328 329 329 329 329 330 330 331 331 331 332 332 333 334 335 337 337 338 337 338 338 339 339 340 339 339 339 340 340 340 340 340 341 341 342 342 341 341 341 340 340 340 339 337 336 336 335 336 336 336 335 336 335 333 332 331
355 355 355 355 354 355 355 356 356 356 356 355 355 354 353 351 349 347 345 342 340 338 337 336 334 333 331 331 330 329 330 330 330 330 330 330 330 331 331 332 334 335 337 338 338 338 340 341 341 341 341 342 341 341 341 342 342 342 343 343 343 343 343 344 344 344 345 345 344 343 343 341 338 337 338 337 337 336 337 338 338 337 337 336 335
356 355 355 355 355 355 356 356 356 357 357 357 357 356 355 354 352 350 348 345 343 341 339 337 336 335 334 333 332 331 331 331 331 330 331 330 331 331 332 333 336 337 338 339 340 341 342 343 343 344 344 344 344 344 345 344 344 344 345 345 345 346 346 346 346 347 347 347 346 345 345 344 341 339 339 338 338 339 339 341 341 340 340 339 339
356 355 354 354 355 355 356 357 357 357 357 358 358 358 357 356 354 353 350 348 346 343 341 338 337 336 336 335 333 332 332 332 331 331 331 331 331 333 334 335 337 339 340 341 341 343 343 345 346 347 347 347 348 348 348 347 347 348 348 349 349 349 348 348 348 349 349 349 349 348 347 347 345 343 342 342 342 343 343 343 343 343 343 342 342
354 354 354 354 355 356 357 357 357 358 358 358 359 358 358 357 356 355 354 352 349 346 342 340 338 337 336 336 335 334 333 332 332 332 332 332 333 334 336 338 340 342 342 343 344 344 345 347 348 348 349 349 350 350 351 351 351 351 351 352 352 352 352 352 351 352 352 352 352 351 351 349 350 349 348 348 347 347 346 346 346 346 345 344 344
353 353 354 355 355 356 357 358 358 359 360 359 360 360 359 358 358 358 357 356 353 350 348 344 341 339 338 338 337 336 334 334 334 334 333 334 335 337 339 341 343 343 344 345 346 346 347 348 349 350 350 351 352 352 353 354 354 355 355 355 356 356 356 356 356 356 355 355 355 355 355 354 354 353 353 352 351 351 351 349 349 348 346 346 346
354 354 355 356 356 357 358 359 360 360 360 360 360 360 360 360 360 360 359 358 357 355 353 350 346 343 341 340 339 337 334 334 335 335 335 336 338 341 342 343 344 344 345 346 347 348 349 350 351 352 352 353 353 354 355 356 356 357 358 358 358 358 359 359 358 358 358 358 358 358 358 357 357 356 356 355 354 354 352 350 350 348 346 345 347
355 355 356 356 357 359 360 360 360 361 360 361 361 361 361 362 361 362 362 360 360 358 356 354 350 348 345 343 341 338 335 336 337 336 337 338 341 343 344 345 346 346 346 347 348 349 350 351 352 353 354 355 355 356 356 357 358 359 359 360 360 360 360 360 360 360 359 359 360 359 359 359 358 357 356 356 356 356 352 351 353 350 345 344 346
356 356 358 359 359 360 361 361 361 361 361 361 362 362 362 362 363 363 363 363 362 360 359 357 354 351 349 346 343 341 337 336 337 338 339 341 343 345 346 346 347 348 348 349 350 351 352 353 354 355 355 355 356 357 358 359 360 360 361 361 362 362 362 361 360 360 360 360 360 360 359 358 357 357 355 355 356 356 354 354 355 351 343 341 343
358 359 360 361 361 362 362 362 362 362 362 362 362 363 363 363 364 364 364 364 363 362 361 359 358 356 354 351 349 346 343 340 340 340 341 342 345 346 348 348 349 350 350 351 352 352 353 353 355 355 357 357 357 359 359 360 361 362 362 362 362 362 362 362 360 361 360 359 359 358 357 357 356 354 353 354 355 355 354 355 356 353 345 340 339
361 361 362 362 363 362 363 362 362 362 362 363 363 364 363 364 365 364 365 365 364 364 363 361 360 359 357 355 354 351 350 348 345 344 343 345 346 348 349 350 350 351 351 352 353 354 354 355 356 356 357 358 359 359 361 361 362 363 363 362 362 363 363 363 362 362 359 357 356 356 357 356 354 354 354 354 353 353 352 353 353 353 349 344 340
363 363 363 363 363 363 363 364 363 363 364 363 364 364 364 365 365 364 364 365 364 364 364 363 362 360 359 359 357 356 354 353 351 350 349 348 349 349 350 350 351 352 353 354 355 355 355 356 357 358 359 360 360 362 362 363 364 363 363 364 363 363 363 363 363 360 356 353 351 353 354 354 352 353 354 353 353 353 352 351 351 352 351 348 345
364 365 364 364 364 364 364 363 364 364 364 365 365 364 364 364 365 365 364 364 364 364 364 364 363 362 361 360 358 358 357 356 355 355 353 353 352 352 352 352 352 353 354 355 356 357 358 359 360 361 362 362 362 363 363 363 364 363 363 363 363 364 364 362 361 359 354 348 345 348 353 353 350 350 351 352 352 352 351 349 348 347 349 350 350
364 364 365 364 365 365 365 365 365 365 365 365 365 365 365 364 365 365 365 365 365 365 364 364 363 363 362 361 360 360 359 358 358 356 356 355 355 354 354 354 354 355 357 357 358 359 360 361 362 362 363 363 363 363 363 364 363 363 364 364 363 363 363 362 363 362 356 346 340 340 344 345 342 341 343 343 342 342 342 339 338 338 340 343 345
359 361 361 362 362 362 363 364 365 365 365 365 365 365 365 365 365 365 365 365 365 365 365 364 363 363 363 362 362 361 360 360 359 359 358 358 357 357 357 357 358 359 359 360 360 361 362 363 363 363 363 363 363 364 364 364 364 363 363 363 362 362 362 361 358 353 345 337 332 331 333 333 332 332 332 332 331 331 331 331 330 329 331 332 336
352 354 355 356 358 358 358 359 361 362 363 364 364 365 365 365 365 365 365 365 365 364 365 364 364 364 363 362 362 362 362 361 360 360 359 359 359 359 360 360 361 362 361 362 362 363 363 363 363 363 364 364 364 364 363 363 363 362 361 361 360 358 355 350 343 337 331 329 329 329 328 329 329 329 329 329 329 329 330 329 329 329 329 329 330
348 348 349 351 353 355 356 356 357 358 359 361 362 362 363 364 364 364 364 365 365 365 364 365 364 364 364 363 364 363 363 363 363 363 362 361 361 361 361 362 362 362 362 363 363 364 364 365 365 365 365 364 364 363 363 361 361 360 359 356 351 346 340 335 331 329 328 328 328 328 328 328 329 329 329 329 329 329 330 330 330 330 330 331 334
354 353 353 352 353 355 357 357 358 359 359 360 361 361 363 364 364 364 365 365 365 365 365 364 364 365 364 365 364 365 365 365 364 364 364 363 363 363 363 363 362 362 362 364 365 365 365 366 365 364 364 364 362 361 361 359 357 355 351 345 338 333 329 328 328 328 328 328 328 328 328 328 328 329 329 329 329 330 330 330 331 331 330 334 337
361 360 359 358 357 358 359 359 360 359 359 359 360 362 363 364 364 365 365 365 365 365 365 365 365 366 366 366 366 366 366 366 366 365 365 365 365 364 364 364 364 364 365 365 366 366 365 364 363 363 362 361 359 356 354 351 346 342 337 332 329 327 327 327 327 328 328 328 328 327 328 328 329 328 329 329 329 330 330 331 332 333 333 334 336
363 362 362 361 360 360 361 361 360 359 358 359 360 362 364 365 366 366 366 366 366 366 367 366 367 367 366 367 367 367 367 367 366 365 365 365 365 364 364 364 364 364 365 364 364 363 363 362 361 359 357 353 350 345 340 336 332 329 327 326 326 327 327 327 327 327 327 327 327 328 328 328 328 328 328 328 328 328 329 330 331 331 332 333 334
363 363 363 362 362 361 362 362 361 360 359 359 359 362 363 365 366 367 367 368 368 368 368 368 367 368 368 367 367 367 366 366 366 365 365 365 365 365 364 363 364 363 363 362 362 361 360 359 355 351 348 343 337 332 329 327 326 326 326 327 327 327 327 327 326 326 327 327 327 328 327 327 327 327 327 328 328 328 329 330 330 331 331 332 332
361 363 363 363 363 363 363 362 362 361 360 360 361 362 364 365 366 367 368 368 369 368 368 367 366 367 367 367 367 366 366 366 366 365 365 364 364 364 363 363 362 361 360 360 359 356 353 349 343 339 336 331 328 326 326 326 326 327 327 327 327 326 326 326 326 327 327 327 327 327 327 327 327 327 327 328 328 328 329 330 330 331 331 331 332
357 358 361 363 364 363 363 363 362 362 361 362 362 363 364 365 366 366 366 367 369 369 368 367 367 367 366 367 367 366 366 366 366 364 363 362 362 361 359 359 358 358 356 353 348 343 339 335 331 328 327 326 325 325 326 327 327 327 327 327 326 326 325 326 326 326 326 326 326 326 326 326 326 327 327 328 328 328 329 330 330 331 332 331 331
358 358 359 361 362 364 364 363 363 363 362 362 362 363 363 363 363 364 364 365 367 368 368 368 368 367 367 367 366 364 366 366 364 361 360 358 356 354 354 353 352 349 344 337 332 330 328 326 325 325 325 326 326 327 327 328 327 327 326 326 325 326 326 326 326 326 325 325 325 325 325 325 326 327 326 327 327 328 328 329 330 331 332 332 332
360 360 361 361 362 363 365 364 365 365 363 363 363 363 363 363 363 363 363 364 366 367 368 367 367 365 366 365 362 361 362 361 358 356 355 354 352 350 347 344 339 334 330 326 325 325 325 325 325 326 326 327 328 328 328 328 327 327 326 325 325 325 325 325 325 325 324 324 324 324 325 325 325 326 326 326 328 327 328 329 330 331 332 333 333
357 359 363 364 364 363 363 363 364 364 363 365 365 364 365 366 366 365 365 365 365 365 365 364 363 362 360 358 355 353 354 354 351 348 345 343 341 338 333 329 327 325 325 325 325 325 326 326 326 326 327 329 329 329 329 328 327 326 325 324 324 324 324 324 324 323 323 323 323 324 324 324 325 326 326 326 327 328 328 329 329 331 332 333 334
354 356 359 364 365 363 361 362 362 362 362 365 366 366 367 367 366 365 365 364 363 363 361 359 356 353 349 347 346 344 343 341 339 335 331 329 328 326 325 325 325 325 325 326 326 326 326 326 327 327 328 329 330 329 329 328 327 325 323 323 323 324 323 322 322 322 322 322 323 324 324 324 325 325 326 326 327 328 328 328 328 330 332 333 334
352 353 356 361 364 363 362 362 363 362 362 365 367 367 367 366 365 363 363 360 358 356 354 349 346 342 339 337 335 334 332 331 329 328 328 328 327 327 327 327 327 327 327 327 327 327 327 327 327 328 329 330 330 330 329 327 325 323 322 322 323 323 322 320 320 321 321 322 323 323 324 324 325 326 327 327 327 328 328 328 328 329 330 331 333
350 350 353 356 358 361 361 361 362 362 363 363 364 363 363 362 360 358 355 352 347 344 341 337 335 334 333 333 333 332 332 332 332 331 332 332 331 331 330 330 330 330 330 329 328 328 327 326 327 328 329 330 330 330 329 326 324 322 322 323 322 321 320 319 319 320 321 322 322 323 323 323 325 326 326 327 327 327 328 328 328 328 329 330 331
349 350 351 352 354 356 358 357 357 359 361 360 359 357 358 358 354 350 346 342 338 336 335 334 333 334 334 334 334 335 334 334 334 334 335 335 334 334 334 333 332 331 331 331 330 329 329 328 328 329 330 330 331 330 328 325 323 322 322 322 321 320 319 319 319 319 320 321 322 322 322 323 324 325 326 326 327 327 327 327 327 328 329 330 331
348 349 350 351 352 354 355 354 353 355 358 358 354 351 350 349 346 341 338 335 334 334 335 335 335 335 335 335 335 335 335 335 335 335 336 336 335 335 335 334 334 333 332 332 331 330 330 329 329 329 330 331 331 330 328 325 323 322 322 321 320 320 319 318 318 319 319 320 321 322 321 322 323 324 324 325 326 326 326 326 326 327 328 329 330
347 347 348 349 350 351 353 352 350 350 351 352 350 345 341 341 340 337 335 335 336 336 337 337 336 336 336 336 335 335 336 336 336 335 336 336 335 335 335 334 334 334 333 332 331 330 330 329 329 329 331 331 331 330 328 326 324 322 321 321 321 321 320 318 318 318 319 319 320 321 321 321 322 322 322 323 325 325 325 325 325 325 326 326 328
345 345 346 346 346 347 349 348 345 342 342 343 343 341 339 339 339 338 337 337 338 338 338 338 337 337 336 336 336 336 336 336 335 335 335 335 335 335 334 334 333 332 332 331 330 330 329 329 329 331 332 332 331 330 329 328 326 324 322 321 322 322 320 319 318 318 318 318 319 319 320 320 321 321 321 321 323 323 324 325 324 324 324 324 325
344 343 343 343 343 342 343 342 341 339 338 339 340 340 340 340 339 338 338 339 339 339 338 337 337 336 336 336 336 336 336 336 336 335 334 334 333 333 332 331 331 330 330 329 328 328 328 328 330 331 332 332 331 330 329 329 328 326 324 324 324 324 322 320 318 317 318 318 318 318 318 319 320 320 320 320 320 321 322 323 323 323 324 324 323
343 342 341 341 341 340 340 340 340 340 340 340 340 340 340 340 340 339 339 339 338 338 337 336 336 335 335 335 335 335 334 334 334 334 333 333 332 331 330 329 328 328 328 327 327 326 327 328 330 330 331 331 330 330 329 329 329 328 326 325 325 325 324 322 319 318 318 318 317 318 318 318 318 319 319 320 320 320 320 320 320 321 321 322 321
342 342 341 340 340 340 339 339 340 340 339 339 340 339 339 339 339 339 338 338 337 337 336 335 334 334 334 333 333 333 333 333 332 332 331 330 329 327 326 326 325 325 325 325 325 326 327 329 330 330 330 330 330 329 329 329 329 328 327 326 325 325 325 324 322 322 322 321 320 319 318 318 318 318 318 319 319 319 319 320 319 320 320 320 320
340 340 340 340 340 339 339 338 339 339 339 339 339 339 338 338 338 338 337 337 336 336 335 335 334 333 333 333 333 333 332 331 330 329 327 326 325 324 324 324 325 325 325 325 326 327 327 328 328 329 329 329 329 329 329 328 328 327 327 326 324 324 324 324 324 324 324 324 324 322 322 321 320 319 318 318 318 318 318 319 319 319 319 319 319
339 338 338 338 338 338 338 337 337 338 337 338 338 338 337 337 337 337 336 336 336 336 335 334 333 333 332 332 331 329 328 328 327 326 326 326 326 325 325 325 325 325 325 325 326 327 327 327 328 328 328 328 328 328 328 328 327 326 325 324 323 322 322 322 321 322 322 323 323 323 323 323 323 322 321 321 320 318 317 318 318 318 318 318 319
331 332 333 333 333 334 334 335 336 336 335 335 335 335 334 334 334 334 333 333 332 332 331 330 329 328 327 326 326 325 325 325 326 326 326 327 327 326 325 325 324 324 324 325 326 326 327 327 327 327 327 327 327 327 327 327 326 325 324 323 322 321 319 319 319 319 319 320 320 320 320 320 321 321 322 322 322 321 319 319 319 318 318 318 318
320 321 323 325 326 326 326 327 328 329 329 329 329 328 328 327 327 327 326 326 325 325 324 323 323 323 323 323 323 324 325 326 326 326 326 326 326 326 326 325 324 324 324 325 325 325 325 326 326 326 326 326 326 325 325 325 324 324 323 322 321 319 318 317 316 316 316 316 316 316 316 317 317 317 318 319 320 321 321 321 321 320 320 319 319
321 319 319 320 320 320 320 321 321 321 321 322 323 322 322 321 321 320 320 319 319 319 320 320 320 321 323 323 324 324 325 326 326 325 326 326 325 325 325 325 324 324 324 324 324 324 324 324 324 324 324 324 324 323 324 323 323 323 322 320 319 319 317 316 315 314 314 314 314 314 314 314 314 315 315 316 316 317 318 319 320 320 321 321 321
322 321 320 318 318 317 317 318 317 317 317 317 318 318 318 317 317 317 317 317 317 318 319 319 320 321 322 322 322 323 323 323 323 323 323 323 323 323 323 323 323 323 323 323 323 323 322 322 322 322 322 321 321 322 322 322 321 321 319 318 317 317 315 313 312 312 311 312 312 313 313 313 313 313 314 314 315 315 316 316 317 317 318 319 319
Wind_Speed
51 49 47 45 43 42 41 41 41 40 40 40 40 39 37 36 35 34 34 33 30 28 27 27 26 25 24 23 22 23 23 23 23 23 24 24 23 23 22 23 23 23 22 21 21 21 22 22 22 20 19 20 21 21 22 23 24 25 25 26 25 25 25 26 29 30 28 25 22 21 21 22 22 22 22 23 22 22 22 22 22 22 23 23 23
52 49 47 46 44 42 41 40 40 41 41 40 40 39 38 36 35 35 35 34 32 30 29 28 28 27 26 25 24 24 25 24 24 24 25 25 24 24 24 24 24 24 24 23 22 23 23 23 23 22 22 23 23 23 24 24 25 27 27 28 28 27 27 28 29 32 33 30 27 25 24 25 26 25 25 26 25 25 26 25 25 25 25 25 25
51 49 48 46 44 42 42 41 41 41 41 41 41 40 39 37 36 36 35 34 33 32 31 30 29 29 28 27 26 26 26 26 26 26 27 26 26 26 25 25 25 24 24 24 23 23 24 25 25 24 24 25 26 26 26 26 27 28 29 30 31 31 30 30 31 33 36 35 33 31 29 28 29 28 28 28 28 28 29 29 28 28 27 27 27
51 50 48 46 44 43 43 42 41 42 42 42 41 40 39 38 38 37 36 35 34 33 32 32 32 31 30 29 29 28 28 28 28 28 28 28 28 27 27 27 26 26 25 24 24 24 25 25 25 24 25 27 27 27 28 28 28 29 30 30 31 32 32 32 33 35 37 39 38 36 34 33 33 32 32 32 31 31 32 32 31 31 31 30 30
51 50 48 46 45 44 43 42 42 42 42 42 42 41 40 39 39 38 37 37 36 35 34 34 34 33 32 32 31 30 30 30 29 29 29 29 29 29 29 29 29 29 28 28 27 26 27 26 26 25 26 28 28 28 28 29 29 30 31 31 31 32 32 33 35 36 38 40 40 39 39 38 37 36 35 36 36 35 35 35 35 35 34 33 33
50 50 49 47 46 45 43 43 42 41 41 41 41 40 41 40 40 39 38 37 37 37 36 36 35 35 34 33 32 32 32 31 31 31 30 30 30 30 30 30 30 31 31 31 31 30 30 30 29 28 29 29 29 29 28 29 29 30 31 31 31 32 33 33 35 36 39 41 41 41 41 41 41 40 38 38 39 39 38 38 38 38 37 37 37
50 50 49 49 47 45 43 42 41 40 39 39 39 40 40 40 40 39 38 38 38 38 38 37 36 36 35 35 34 34 33 33 33 32 32 31 31 31 31 31 32 32 32 32 32 32 32 32 32 32 32 32 31 31 30 30 30 31 31 31 31 33 34 35 35 37 38 40 41 41 41 41 42 42 40 40 41 41 41 41 41 40 40 40 39
50 50 50 49 48 46 43 41 40 39 39 39 39 39 40 40 39 38 38 38 38 38 38 38 37 37 36 36 36 35 35 35 35 34 34 33 33 33 33 33 33 33 33 33 33 33 33 33 34 34 34 34 33 33 33 33 33 33 32 31 32 33 35 35 36 38 39 40 41 41 41 42 42 42 41 41 42 41 40 41 42 42 41 40 40
49 49 49 49 48 46 43 42 41 40 39 39 39 40 40 39 39 39 39 39 38 38 38 38 38 38 37 37 37 37 37 37 37 36 35 35 35 34 34 34 34 34 34 34 34 34 34 34 34 34 34 34 34 35 35 35 36 36 35 34 35 36 36 37 38 39 40 42 42 42 43 44 44 42 42 41 41 40 39 41 43 41 41 41 41
49 49 49 48 46 45 43 42 41 40 40 39 39 39 39 39 40 40 39 39 38 38 38 39 39 39 39 38 38 38 39 38 37 37 36 36 36 35 35 35 35 35 35 35 35 35 34 34 34 34 34 34 34 34 34 35 36 37 36 36 37 38 39 40 40 41 41 43 44 43 45 46 45 43 43 42 41 41 41 43 43 42 41 43 43
48 48 48 46 45 44 44 43 42 41 41 39 39 39 39 39 39 39 40 40 39 38 39 39 40 40 39 39 39 40 40 39 38 37 37 37 36 36 36 36 36 36 36 36 36 35 35 35 34 34 34 34 34 33 33 34 34 35 35 35 36 38 39 41 41 41 42 44 44 44 46 48 46 44 44 43 42 42 43 43 44 43 42 43 43
47 47 46 45 44 44 43 43 43 42 41 40 39 38 38 38 39 39 40 40 39 39 40 40 40 40 40 40 40 41 40 39 38 37 37 37 36 36 37 37 38 38 37 37 37 36 36 36 35 35 34 34 33 34 34 34 33 34 34 35 35 37 38 40 41 41 42 43 45 46 47 48 47 45 44 44 43 44 44 44 44 44 43 43 43
46 45 44 43 43 43 43 43 43 42 41 40 39 38 38 39 39 39 39 39 39 40 40 40 40 40 40 41 41 41 41 39 38 38 37 37 36 37 37 38 39 39 38 38 38 37 37 37 36 36 34 34 34 34 34 34 34 34 35 36 36 37 38 39 41 41 41 43 46 48 47 47 48 47 44 43 45 46 47 47 46 45 45 44 44
45 43 43 42 42 42 42 42 42 41 40 39 38 38 39 38 38 38 38 38 39 40 40 40 40 40 41 41 41 41 41 40 39 38 38 37 37 38 38 38 39 39 39 39 39 38 38 37 38 36 34 34 35 34 34 34 35 35 36 37 38 38 38 40 40 40 41 43 46 47 47 46 48 48 46 46 48 48 49 49 48 48 48 46 45
43 42 42 41 41 41 41 41 40 39 38 38 38 38 38 37 37 37 37 38 39 39 40 40 40 41 41 41 42 42 41 40 40 39 39 38 38 39 39 38 39 39 39 39 39 39 38 38 39 38 36 36 35 35 35 35 36 37 38 39 40 39 39 40 40 40 40 41 43 45 44 43 44 45 45 46 47 48 48 49 49 50 49 47 47
41 41 41 40 40 40 39 39 38 38 37 37 37 37 36 35 35 35 35 36 37 38 39 39 40 41 41 41 42 42 40 39 40 40 39 38 39 39 39 38 38 38 38 38 38 38 38 39 39 39 38 38 36 36 36 36 38 39 41 42 42 42 42 41 40 41 40 40 41 42 41 40 40 40 42 44 46 47 49 50 50 51 50 48 49
40 40 40 39 38 38 38 37 37 36 36 36 36 35 34 33 32 32 33 34 35 36 36 37 38 39 40 41 42 42 41 39 39 39 38 39 39 39 39 38 38 38 38 37 37 37 38 38 39 39 39 39 38 36 36 37 39 41 42 43 44 45 45 43 43 44 43 42 42 42 43 42 40 39 39 41 42 45 51 54 52 51 48 46 48
39 39 39 37 37 36 36 36 35 34 35 35 34 32 31 31 30 30 31 31 31 32 32 33 34 35 37 39 40 41 40 38 38 38 38 38 39 38 38 38 38 38 37 36 36 37 37 37 37 38 39 38 37 36 36 37 39 41 42 43 45 46 46 45 45 45 45 45 44 44 44 43 41 39 39 41 41 43 50 54 54 52 47 44 46
37 37 37 35 35 35 35 35 34 34 34 34 32 31 30 29 28 29 30 30 29 29 29 31 32 32 34 36 37 38 38 37 37 37 36 37 37 37 37 37 38 38 37 36 36 36 36 36 36 37 38 38 37 37 36 37 39 41 41 44 47 48 47 45 44 45 46 45 42 40 41 42 42 42 43 45 44 44 48 51 53 55 50 44 45
33 34 35 34 35 35 35 35 34 34 33 32 31 30 29 28 29 30 30 30 30 30 31 31 32 32 32 33 34 35 36 35 34 35 34 35 35 35 35 37 38 37 36 36 36 36 35 35 35 35 35 35 35 35 35 37 40 42 42 44 46 46 44 43 44 45 42 38 35 38 42 45 46 46 48 51 51 50 50 50 51 54 52 48 48
32 34 36 36 36 36 36 35 35 33 33 31 31 31 30 30 30 30 30 31 31 32 32 32 33 32 32 32 33 33 33 33 32 32 32 32 32 33 34 36 36 36 36 36 36 36 35 34 33 32 32 33 33 34 35 36 39 39 40 40 41 41 42 42 44 44 39 34 34 39 44 46 46 47 48 50 51 51 51 51 51 51 52 53 53
32 34 36 36 37 37 36 36 35 34 33 33 33 33 32 31 31 31 31 32 32 33 33 33 34 33 32 33 33 32 32 32 31 31 30 30 31 31 33 33 33 33 34 35 34 34 33 32 31 31 32 32 32 32 32 33 34 35 36 36 37 39 41 41 41 41 37 32 30 34 39 42 42 43 44 45 47 49 51 52 52 52 51 52 53
26 29 31 33 34 35 35 35 35 34 34 34 34 34 33 33 33 33 33 33 34 34 34 34 35 35 34 34 33 32 32 31 31 31 30 30 30 30 30 30 29 30 32 32 32 31 30 30 31 31 31 30 30 30 31 32 33 33 33 34 36 37 38 39 41 41 39 36 34 37 41 43 43 44 46 48 48 49 51 52 53 54 54 55 55
20 22 24 25 27 28 29 30 32 33 33 33 34 34 34 34 34 34 34 35 35 35 35 35 35 35 35 34 32 31 30 30 30 31 30 29 29 29 28 27 25 26 28 29 28 28 28 28 29 29 29 30 30 31 31 31 31 31 32 33 34 35 36 38 39 39 37 35 35 38 41 43 44 46 47 48 47 47 49 51 53 54 56 58 60
18 19 21 22 22 23 24 24 25 27 28 30 32 32 33 34 35 35 35 36 36 36 35 35 35 35 34 33 31 29 28 29 29 29 29 28 27 26 25 23 22 24 25 25 26 26 26 27 28 29 30 30 30 30 29 29 29 29 30 31 31 33 34 34 35 35 34 33 33 35 38 40 41 42 41 41 42 42 45 48 51 52 55 59 61
14 16 18 19 20 21 23 23 23 22 23 25 26 27 28 30 33 34 35 35 35 35 35 34 34 34 33 32 29 27 27 28 28 28 27 26 25 24 24 22 21 22 23 24 25 25 26 27 28 28 28 28 27 27 26 25 25 26 28 29 30 31 31 32 32 32 32 31 30 30 32 34 36 39 40 41 42 43 44 47 49 51 54 57 58
9 10 13 15 17 19 21 22 22 21 20 20 21 22 24 26 29 31 33 34 34 34 34 34 33 33 32 30 27 26 26 26 26 26 25 24 23 23 22 22 21 22 24 25 26 26 26 26 25 25 26 26 25 24 22 23 25 27 28 29 29 29 29 29 29 29 29 29 30 31 33 34 36 40 43 45 47 48 47 49 50 51 53 54 55
6 6 9 12 15 16 17 18 18 18 18 19 20 22 24 26 28 30 31 31 31 30 31 31 31 30 29 27 25 26 26 26 24 23 22 21 20 20 21 21 22 22 23 24 24 23 23 23 23 23 23 22 21 21 22 24 26 26 26 26 26 27 27 27 27 28 28 31 33 35 36 36 37 38 41 44 47 48 48 49 50 50 50 51 53
7 6 7 10 13 14 15 15 16 17 18 20 21 23 25 26 27 28 28 28 28 27 26 26 25 24 23 23 24 25 24 23 22 21 20 19 18 18 18 18 19 19 19 19 20 20 20 21 21 20 19 19 20 21 22 23 23 23 24 25 25 26 26 27 28 29 30 32 34 35 36 37 39 40 43 46 48 49 48 47 47 48 48 48 52
8 8 8 9 12 14 15 16 17 18 19 20 20 21 23 23 24 25 25 25 24 23 22 21 20 19 20 21 22 22 21 20 20 20 20 19 18 17 17 17 16 16 17 17 18 18 18 17 17 17 18 20 21 21 22 22 23 23 23 23 23 24 25 26 28 29 30 30 31 33 36 39 42 44 46 49 51 52 51 48 45 44 45 47 50
9 9 9 10 11 14 16 17 18 18 19 20 19 19 20 21 21 21 21 21 20 19 18 17 17 17 19 20 20 20 19 20 20 20 20 19 18 17 17 17 16 17 17 17 17 15 14 14 15 17 18 19 19 20 20 20 20 21 21 21 22 24 25 26 27 27 28 29 31 33 37 40 43 45 46 49 51 53 53 50 44 41 42 45 48
8 9 10 11 12 13 16 18 19 19 19 18 17 17 18 18 19 19 19 19 20 20 20 20 20 19 20 21 22 22 22 21 20 19 19 18 17 17 16 16 16 16 16 14 12 11 12 14 15 16 16 17 17 17 17 17 17 17 19 21 22 23 24 24 24 25 27 30 33 35 37 39 41 43 45 48 52 54 54 49 44 41 42 44 45
6 7 9 10 12 14 15 17 18 18 18 17 17 17 17 17 18 19 19 19 20 21 21 21 21 20 19 17 17 19 22 21 19 18 18 18 17 16 15 14 13 12 11 10 9 11 12 13 14 14 14 15 15 14 14 14 14 16 19 21 22 22 21 22 23 25 28 31 33 35 36 37 39 42 45 48 52 54 53 49 44 40 40 41 42
5 6 8 9 11 13 14 15 16 16 17 17 17 17 18 19 19 18 18 18 19 18 16 15 14 15 14 11 9 13 18 20 18 18 17 16 14 13 11 10 9 8 8 9 9 10 11 11 11 12 13 13 13 12 11 12 14 16 18 19 20 20 20 22 25 28 29 32 33 35 35 36 38 42 45 47 49 51 52 48 42 38 37 38 39
5 6 8 10 11 12 13 14 15 15 17 18 19 19 20 20 19 18 18 18 17 17 14 12 12 11 11 11 13 14 16 17 16 14 12 11 10 9 8 7 8 8 7 7 8 8 8 9 10 11 11 11 11 11 11 12 14 16 18 18 19 20 22 25 27 29 30 32 33 34 35 36 38 39 42 44 46 49 50 47 39 36 36 35 35
7 8 9 11 12 12 13 14 15 15 16 19 21 22 22 20 19 18 17 17 17 17 16 15 15 14 13 13 13 13 13 13 13 11 10 9 9 8 8 7 7 6 5 5 6 8 9 9 10 11 11 11 11 11 11 12 13 15 17 17 19 21 23 25 28 29 29 30 31 33 35 37 37 39 40 42 43 45 47 45 38 33 33 32 32
9 9 9 9 12 14 16 17 17 16 16 20 23 25 23 21 20 19 19 18 19 19 18 18 17 16 16 15 14 13 13 13 13 12 11 10 9 8 7 6 5 5 5 6 7 8 9 9 10 10 11 11 11 10 10 10 12 14 15 16 17 19 22 24 26 26 26 27 29 32 34 36 37 39 41 42 42 43 45 44 40 33 30 30 31
9 10 10 10 12 15 18 20 20 19 20 22 23 24 23 21 20 20 21 21 21 21 20 19 18 18 19 18 17 16 15 14 12 11 10 8 7 6 5 5 5 5 6 7 9 9 10 10 10 11 12 11 10 9 8 9 11 13 14 15 15 16 19 23 25 24 24 25 27 29 32 35 37 38 39 40 40 41 43 45 42 35 29 26 26
9 11 12 11 12 14 17 20 21 21 22 23 22 23 23 21 20 21 22 22 22 22 22 21 21 20 19 19 17 15 12 11 9 7 6 4 3 3 4 5 6 7 8 9 11 11 11 11 12 12 12 11 9 8 6 7 9 11 13 13 13 15 18 22 25 25 24 24 24 27 31 34 35 36 37 38 39 39 41 43 43 40 33 27 22
10 11 12 12 11 12 16 21 23 23 23 23 23 23 24 23 22 23 25 26 26 25 24 22 21 19 17 16 15 12 10 8 7 5 4 3 3 5 6 7 8 9 10 11 12 12 12 12 12 12 11 10 9 7 5 4 6 8 10 11 11 13 17 20 22 23 24 23 23 24 27 30 32 34 35 36 37 38 38 38 38 37 33 28 23
11 11 12 13 13 14 18 22 25 27 27 26 25 25 25 26 26 26 28 28 28 26 23 21 18 17 16 15 14 11 9 7 6 5 4 4 5 6 7 8 9 10 11 12 13 13 13 13 12 11 11 10 8 7 5 3 4 6 7 8 10 12 14 16 18 20 22 23 23 23 24 26 28 31 33 34 35 35 34 33 32 30 27 23 17
12 13 14 16 17 19 21 23 26 28 30 31 30 29 29 29 28 28 28 27 26 23 21 19 17 16 15 14 12 10 8 7 6 5 5 5 7 8 9 10 10 11 11 12 13 14 13 12 10 9 8 8 8 7 6 5 4 4 5 6 8 10 11 12 15 17 19 21 23 24 24 23 24 25 27 29 30 31 31 30 30 29 28 27 24
14 15 18 20 21 22 24 26 27 28 29 31 32 32 30 29 29 28 26 25 23 22 20 18 17 15 14 12 11 9 7 6 5 5 5 6 7 9 10 11 11 11 11 12 12 12 11 8 6 6 6 7 7 7 7 6 5 5 6 6 6 7 8 8 11 13 16 18 20 22 23 23 22 22 23 24 25 26 27 28 28 28 29 30 32
17 18 20 23 24 25 26 27 28 28 29 29 31 31 30 28 27 26 25 24 22 21 18 17 15 14 12 10 8 7 5 5 5 6 7 8 9 11 12 12 12 12 11 10 10 9 7 4 3 3 4 5 6 6 6 5 5 5 5 5 4 4 5 6 6 9 12 14 16 19 21 22 22 22 22 21 20 21 22 23 24 24 25 26 28
21 22 23 24 25 26 27 27 28 28 28 28 28 28 28 27 26 25 24 23 21 19 17 15 14 12 10 8 7 6 6 7 8 8 9 10 11 11 12 11 11 10 9 8 7 6 4 4 4 3 3 4 5 5 6 5 4 4 4 3 3 3 4 4 5 6 8 10 11 13 16 18 19 19 20 20 19 18 18 18 18 19 19 19 20
25 26 27 27 27 27 28 27 27 27 26 26 26 26 25 25 24 23 21 20 18 16 15 13 12 10 9 8 8 8 8 7 7 7 7 8 9 9 9 8 7 7 8 7 6 5 5 5 5 5 4 4 3 4 5 5 4 4 4 3 3 3 3 4 5 6 6 8 9 10 12 14 14 14 15 16 16 15 15 15 15 14 14 13 13
29 28 28 28 28 28 28 27 26 25 25 24 23 23 22 21 20 20 19 17 16 15 13 12 11 11 10 9 9 7 6 4 4 4 5 5 6 7 7 6 5 6 7 6 6 6 6 6 6 6 6 6 5 5 5 5 5 5 5 5 4 3 3 3 4 5 6 7 8 8 10 11 12 11 12 13 12 11 11 12 13 13 12 11 11
31 31 31 30 29 28 26 25 24 24 23 22 21 21 20 19 18 17 16 15 14 13 12 11 9 8 7 6 4 3 2 2 2 3 3 3 3 4 6 5 5 6 7 7 7 7 7 6 6 6 6 7 7 6 6 6 7 8 7 6 5 5 5 5 5 6 6 7 8 8 9 9 10 11 11 12 11 9 8 8 9 9 8 9 9
23 26 29 30 29 28 27 26 24 23 21 20 19 18 17 17 15 14 13 12 12 11 10 9 8 7 6 5 4 3 3 3 4 4 5 5 5 5 6 6 6 6 7 7 8 8 7 7 7 7 7 7 8 8 8 8 9 9 9 8 7 6 6 7 8 8 8 8 8 8 9 9 10 10 10 10 10 10 10 9 9 8 6 4 4
17 19 22 24 26 26 26 25 25 23 21 19 18 17 16 16 16 15 14 14 13 12 11 9 9 8 7 7 6 4 3 3 4 5 6 6 7 7 7 7 7 7 8 9 9 8 8 8 8 8 9 9 10 9 10 10 11 11 11 10 9 8 9 10 10 10 10 10 10 9 10 10 10 10 10 10 10 10 10 10 10 10 9 8 7
17 18 20 22 23 25 26 25 24 24 23 22 22 21 20 19 19 18 17 17 16 15 14 12 11 10 9 8 6 5 3 2 1 2 3 3 5 6 6 7 7 8 8 9 9 9 9 9 10 10 10 10 10 10 10 10 11 11 11 11 11 11 12 13 13 12 12 12 12 13 13 13 13 12 11 11 11 10 11 11 11 11 9 9 8
Wind_Direction
220 222 223 225 227 228 230 231 231 231 231 231 231 231 231 231 232 233 235 236 235 231 229 228 228 230 233 234 231 227 226 226 226 229 231 234 236 239 241 243 246 248 248 246 245 245 247 249 250 251 251 251 252 252 252 252 252 253 252 253 253 253 253 255 260 272 280 280 279 279 277 275 273 272 273 274 273 273 273 273 273 274 274 275 275
220 223 224 225 227 229 231 232 233 233 232 232 231 230 231 230 231 232 234 235 235 233 231 230 231 233 235 236 234 231 229 228 228 229 231 235 237 240 242 243 245 248 249 249 248 248 250 251 252 252 253 254 255 255 255 256 255 256 255 256 258 258 257 258 261 269 277 280 280 278 276 274 272 272 273 273 274 274 274 274 273 273 274 275 275
221 223 224 226 228 229 231 232 233 234 233 233 232 231 231 231 231 232 233 234 235 234 233 233 234 235 236 237 236 233 231 230 230 231 233 235 238 240 242 244 246 247 249 250 251 252 253 254 255 255 254 255 257 257 258 258 258 259 259 259 261 263 262 261 262 266 273 278 280 278 277 276 276 276 276 276 276 274 272 273 273 273 273 273 274
221 222 224 226 228 229 231 232 233 233 234 234 234 233 233 232 232 232 232 233 235 235 235 236 236 238 239 239 238 236 234 233 233 234 236 237 239 240 241 243 246 248 250 252 253 254 256 256 258 259 258 259 260 260 260 261 261 262 263 263 264 266 266 264 265 267 271 276 279 279 279 278 278 279 279 279 278 276 274 273 272 272 272 272 273
220 222 224 226 228 229 230 232 233 234 235 235 235 235 234 234 234 233 233 234 235 236 237 237 238 238 239 240 240 240 239 238 238 238 238 239 240 242 243 245 247 249 251 253 253 255 256 258 260 260 261 262 263 263 263 263 264 265 267 268 268 269 269 268 268 269 270 274 279 281 281 280 280 280 280 280 280 280 278 276 275 273 273 272 272
219 221 224 225 227 229 231 232 234 235 236 237 236 236 236 235 235 235 235 235 235 236 237 238 238 239 239 240 241 242 242 243 243 243 242 242 243 244 245 247 249 251 252 253 254 254 256 259 261 261 261 263 264 265 265 265 266 267 268 270 272 273 272 271 270 270 270 274 278 281 282 282 282 282 282 281 281 281 280 278 276 274 272 272 272
219 221 223 225 227 229 231 233 234 236 237 237 237 237 236 236 236 236 236 236 236 237 237 238 239 239 240 241 241 242 244 245 246 246 246 245 246 247 247 248 250 252 254 255 256 256 257 259 260 261 262 263 264 265 265 266 267 268 269 272 274 274 274 274 273 271 272 274 276 280 282 283 283 284 284 284 282 281 280 279 277 276 274 273 274
219 221 223 225 227 229 231 233 234 236 237 238 238 238 237 237 237 237 237 238 237 238 238 239 240 241 242 243 243 244 246 247 248 248 249 249 249 250 251 252 252 253 255 256 258 259 260 261 261 262 263 263 264 265 266 267 268 268 269 271 272 273 274 275 275 275 274 275 276 279 281 282 282 282 284 283 282 282 283 282 281 281 280 277 277
220 221 223 225 228 230 232 233 235 236 237 238 238 238 238 238 238 238 238 239 239 239 240 241 242 242 243 244 245 246 247 248 248 249 250 251 252 253 254 255 256 257 258 259 259 261 262 263 264 265 266 267 267 268 267 268 269 269 270 271 272 273 274 275 276 277 277 277 278 279 280 280 280 281 282 281 282 285 287 285 283 284 284 282 281
220 222 224 227 230 231 232 233 235 236 237 238 239 239 239 239 239 239 239 240 240 241 241 242 243 243 244 245 247 248 248 249 249 250 251 253 254 256 257 259 260 261 262 263 263 264 265 266 268 269 270 271 271 271 271 270 270 270 271 272 273 274 275 276 277 278 279 279 280 281 280 279 280 281 282 282 284 286 285 284 284 285 285 283 283
221 223 226 228 231 232 233 234 235 236 237 238 239 240 240 240 240 240 241 241 241 242 243 244 244 244 245 246 247 249 249 249 250 251 253 254 256 258 259 261 263 264 265 266 268 269 270 271 273 274 274 275 275 275 275 274 274 274 274 274 274 275 276 277 278 279 280 281 281 282 281 281 282 282 283 284 285 285 285 286 286 286 285 284 284
222 224 228 230 232 233 233 235 235 236 237 238 239 241 241 241 241 241 242 242 242 243 244 245 245 245 246 247 248 249 250 250 251 253 254 256 257 259 260 262 264 265 267 269 271 273 274 275 276 277 277 277 278 279 279 279 279 279 279 278 278 277 277 277 278 278 279 280 282 282 281 283 284 284 284 286 287 287 287 287 286 286 286 284 285
222 226 230 231 233 234 234 236 236 237 238 239 240 241 241 242 243 243 244 244 244 245 245 246 246 247 247 248 249 250 251 252 253 254 256 257 258 259 260 261 263 266 268 270 273 275 276 277 278 278 279 280 281 282 282 283 284 284 284 283 281 280 280 279 279 278 279 279 280 281 283 284 285 287 290 291 289 288 288 287 288 288 286 286 288
224 228 231 232 233 235 235 236 237 238 240 240 241 242 242 243 244 245 246 246 246 246 246 247 247 248 248 249 250 252 253 253 255 256 257 258 259 260 261 262 264 266 268 271 273 275 276 277 278 279 281 282 282 284 285 286 288 288 288 286 285 285 284 283 282 282 281 280 280 282 286 286 287 290 293 291 289 288 289 289 290 289 288 289 291
225 228 230 231 233 234 235 236 237 239 240 241 241 242 243 245 245 246 247 247 247 248 248 249 249 249 250 250 252 253 253 254 256 258 259 260 261 262 263 264 265 267 268 270 272 274 275 276 277 279 280 281 283 284 286 288 289 289 288 288 288 289 288 288 289 288 286 285 284 285 289 290 290 292 294 291 289 289 288 287 288 287 285 284 284
225 228 230 231 233 234 235 236 237 239 240 241 241 242 243 245 246 246 247 248 249 250 250 250 250 251 251 252 253 253 253 255 257 258 260 262 262 263 264 265 266 267 269 270 271 273 274 275 276 278 280 281 283 285 287 288 288 288 288 289 289 290 290 291 292 291 290 290 289 289 291 292 292 293 294 291 289 287 284 281 281 278 274 274 276
226 229 231 232 234 235 236 237 238 240 240 240 241 242 243 245 245 246 246 247 248 249 249 251 251 252 253 253 253 254 254 256 257 259 261 262 263 264 265 266 267 268 269 271 271 273 274 274 276 277 279 282 284 287 288 289 288 288 289 290 290 290 290 291 292 292 292 292 292 293 294 294 294 294 292 287 284 282 276 275 277 272 264 263 268
229 231 232 235 237 237 238 239 240 240 240 241 242 243 244 245 245 246 246 247 249 250 251 252 253 253 254 254 255 257 258 259 260 261 263 263 263 264 266 267 268 269 270 272 272 273 274 275 277 278 280 282 284 286 287 287 286 287 288 289 289 289 290 291 291 293 293 293 294 294 294 294 293 292 288 284 282 278 271 272 277 272 259 253 262
232 234 236 238 240 240 241 241 241 242 242 242 244 244 245 246 247 247 248 249 250 251 252 252 253 253 254 256 257 258 260 262 262 263 264 264 264 265 266 267 268 269 271 273 274 275 277 278 279 280 282 284 286 287 288 287 286 286 287 287 286 287 291 292 291 293 293 290 288 289 291 292 292 291 291 290 288 282 273 272 276 272 259 250 257
238 240 241 242 242 242 242 242 243 243 244 245 247 247 247 248 247 248 249 250 251 252 251 252 253 254 255 256 257 259 260 262 263 263 264 265 265 266 266 267 268 270 272 274 276 278 279 280 282 283 286 288 289 289 289 287 286 286 286 285 285 290 295 294 292 292 290 285 284 288 291 291 290 290 291 290 289 286 280 276 275 273 265 254 253
239 240 240 241 241 242 243 244 245 246 247 248 249 249 249 249 249 249 251 251 252 252 252 253 254 255 256 257 258 259 261 262 263 264 265 266 266 266 266 267 269 272 274 276 277 279 280 282 284 285 286 286 285 285 285 285 285 286 287 287 289 293 293 291 289 287 283 278 280 285 287 287 287 289 290 291 292 293 291 287 282 279 272 264 258
238 239 239 240 241 242 244 245 247 248 249 249 249 249 250 250 250 251 251 252 252 253 253 253 254 255 256 256 258 259 261 262 264 265 266 266 266 267 267 268 271 273 274 275 276 278 280 282 283 282 282 281 282 283 284 284 285 286 287 290 291 292 291 289 289 291 293 295 296 297 299 299 298 298 298 298 298 298 298 296 293 288 282 274 268
236 238 240 241 243 244 245 247 248 249 250 250 250 251 252 251 251 251 251 251 251 252 253 253 253 254 255 256 257 259 261 263 264 265 265 266 266 266 267 269 271 271 271 272 274 276 277 278 278 279 279 281 282 283 283 284 285 286 288 291 293 294 295 295 295 298 305 311 313 311 309 307 305 304 302 300 299 298 296 295 294 292 287 282 277
235 238 240 242 244 245 246 247 248 248 249 250 250 251 252 251 251 250 250 250 250 251 252 253 253 253 254 256 257 259 262 264 265 265 265 265 265 265 266 267 267 266 267 268 270 272 273 274 275 277 279 280 282 283 285 287 288 289 291 292 294 296 296 297 298 300 305 309 311 310 308 307 306 305 302 300 299 297 294 292 291 290 287 284 281
239 241 243 244 246 247 248 248 247 247 248 248 248 249 249 250 250 249 248 248 248 249 251 252 253 253 254 256 258 260 262 263 263 263 263 263 263 263 262 261 259 259 261 263 265 267 270 272 274 277 280 282 285 287 289 291 293 294 295 296 296 296 296 297 300 303 307 309 310 310 309 308 308 307 305 305 302 298 296 294 291 288 285 282 280
242 243 243 243 244 245 247 247 246 246 245 245 246 247 247 248 249 249 249 248 248 249 250 251 253 254 255 257 259 261 261 261 261 262 262 262 261 259 257 255 253 254 256 259 262 265 269 272 275 278 281 283 285 285 287 290 294 296 296 296 295 295 296 299 302 305 308 311 312 313 312 312 313 312 312 312 309 306 303 299 294 288 283 279 277
247 243 241 239 237 236 239 241 242 241 240 240 242 244 245 245 246 247 248 248 247 248 249 250 252 253 254 256 258 258 258 258 259 260 260 259 258 256 254 253 251 251 253 256 260 264 267 271 274 276 277 277 278 281 287 292 294 292 291 291 293 296 299 303 306 309 310 312 315 317 318 318 317 315 315 314 311 309 308 304 298 293 286 279 275
259 252 243 239 235 233 233 235 235 234 234 234 234 235 238 240 241 243 246 248 249 250 251 252 253 254 255 255 254 254 254 254 255 257 257 257 255 252 250 248 248 249 252 255 258 261 263 265 266 266 268 273 279 285 289 289 288 288 289 292 295 299 302 305 306 307 309 313 316 319 321 321 320 318 318 316 315 314 312 304 296 291 286 280 274
270 269 256 244 237 232 231 231 230 229 231 233 233 232 234 235 237 240 244 247 251 254 256 257 258 258 256 254 252 252 253 254 254 253 252 250 247 245 244 243 244 246 249 251 252 254 256 258 261 265 273 281 284 283 282 283 285 289 292 296 299 301 304 307 309 311 314 317 319 321 323 325 326 326 325 323 322 322 317 306 295 290 287 282 276
265 271 271 259 243 233 229 229 229 229 232 236 238 236 235 236 237 239 241 244 248 252 255 257 258 257 254 252 251 252 253 253 250 247 244 240 237 236 237 237 238 240 241 243 244 246 250 258 266 276 281 281 281 282 285 290 293 294 297 301 305 309 314 317 320 323 324 324 324 325 327 329 331 333 332 329 327 325 320 310 301 294 290 284 279
257 262 268 264 252 240 233 229 229 229 232 236 240 240 238 236 235 236 238 241 242 243 245 246 248 249 249 249 248 245 244 245 243 238 234 230 227 228 230 230 232 235 236 237 239 243 253 264 270 274 276 279 283 288 292 295 298 301 306 311 316 320 325 328 330 332 331 330 329 330 331 333 335 336 336 334 331 327 322 314 306 299 293 287 282
255 258 262 260 254 246 239 234 233 232 232 234 236 236 236 233 231 230 232 234 236 237 238 239 240 242 244 246 244 238 235 236 235 228 221 217 217 220 222 224 227 232 235 237 241 250 261 267 269 273 279 284 288 291 294 298 306 314 318 321 325 330 333 335 335 334 332 332 333 333 334 336 337 337 339 340 337 333 326 317 308 301 296 291 287
246 252 259 257 252 247 243 239 237 235 235 235 233 231 230 230 228 228 229 233 236 239 239 237 235 236 239 243 243 234 227 222 217 213 212 211 210 213 216 220 227 233 236 240 245 254 261 267 272 279 285 288 290 294 300 308 316 321 323 328 333 337 338 336 333 331 331 332 334 336 337 338 337 336 337 339 339 337 331 322 311 303 298 294 292
256 262 264 257 253 250 247 243 239 237 236 235 232 228 227 227 228 230 234 236 235 233 232 229 225 226 227 224 213 208 208 204 198 199 205 208 210 213 216 222 229 231 234 240 247 256 265 272 281 286 288 291 295 301 307 313 319 323 328 334 338 337 336 335 334 334 335 335 337 338 338 338 338 337 337 338 338 338 336 329 316 305 300 298 296
286 283 268 251 244 248 249 246 242 239 235 232 228 225 224 223 225 230 234 232 226 219 214 207 203 203 200 187 175 177 186 190 188 189 196 202 206 211 212 211 213 216 225 239 254 265 273 280 286 290 293 296 300 304 309 315 322 329 334 337 337 335 337 339 340 339 339 339 340 340 340 340 341 341 341 341 340 340 340 335 324 309 302 300 299
296 297 274 246 233 239 247 245 239 237 235 229 224 219 216 216 219 221 219 215 209 203 194 185 178 173 166 162 162 166 170 174 174 173 175 179 181 184 189 194 200 211 230 252 269 276 281 287 292 296 299 299 299 303 309 318 329 338 340 339 338 340 344 346 346 343 342 342 343 343 343 344 346 347 347 346 345 344 343 341 334 318 306 302 301
281 290 282 255 237 238 240 235 230 228 227 224 219 213 208 207 209 206 199 191 184 179 174 169 166 162 154 149 150 152 151 153 157 159 160 164 168 176 188 201 214 236 255 270 279 284 289 294 297 300 299 297 295 299 310 325 338 344 346 345 345 349 355 358 355 349 346 346 347 347 348 351 353 353 352 350 350 349 348 346 342 331 316 307 304
267 272 275 269 259 249 236 225 218 215 213 210 206 199 193 189 187 183 176 170 162 157 154 153 152 150 145 140 141 146 149 151 154 155 156 160 170 185 205 225 247 265 277 286 289 293 299 302 300 298 295 291 290 294 310 334 348 352 354 355 356 3 12 12 6 358 351 347 349 353 356 358 358 358 357 356 356 356 354 351 350 346 334 320 311
259 258 257 262 266 256 232 213 205 203 202 197 189 182 178 177 175 170 164 159 154 150 147 146 144 142 138 137 142 152 158 158 157 158 161 171 192 223 245 262 273 282 291 297 299 302 305 303 298 294 289 285 284 289 308 340 356 360 2 5 9 18 22 19 14 8 1 355 353 358 2 4 4 4 5 5 5 4 1 359 357 356 354 347 335
250 245 242 243 246 235 213 197 188 186 187 184 177 171 167 165 164 161 157 155 152 150 148 147 143 138 138 141 149 161 170 169 165 173 192 214 245 266 274 280 286 293 299 302 302 304 303 299 295 290 284 278 274 274 290 335 358 2 6 11 15 19 22 21 18 15 10 5 1 2 5 8 10 12 13 13 13 13 12 10 7 4 4 2 352
237 229 225 223 217 208 196 185 175 170 171 172 171 166 160 158 159 159 158 158 156 153 154 155 151 148 150 154 158 168 178 178 178 191 216 241 263 275 282 288 293 296 299 301 302 303 302 298 294 287 276 267 258 250 256 297 334 346 358 10 13 13 18 24 24 20 17 16 14 10 10 13 18 20 21 21 22 23 25 28 27 26 27 26 21
231 219 211 206 200 196 191 184 174 166 164 164 165 165 163 162 162 162 161 161 160 160 162 162 159 157 159 160 163 171 183 189 197 215 241 264 280 288 294 298 299 300 301 301 301 301 302 302 297 284 266 255 246 240 246 267 291 310 330 351 3 7 13 23 28 25 21 22 22 20 18 18 21 23 26 29 33 35 38 41 47 52 58 63 70
226 212 202 196 192 189 185 181 176 171 166 163 162 164 166 166 166 165 165 165 165 167 168 166 163 163 164 166 171 181 193 205 221 244 266 284 297 303 307 307 303 301 300 299 299 301 306 307 297 276 258 251 245 240 244 258 273 289 307 326 351 9 13 19 27 28 24 23 25 25 23 22 23 22 22 27 36 42 45 49 56 65 74 81 87
210 200 191 187 187 186 182 178 176 173 170 166 163 163 165 166 166 166 167 167 167 166 166 164 163 165 168 172 180 192 210 231 255 273 284 295 303 306 307 306 303 301 303 304 303 304 306 300 285 263 252 255 255 252 254 265 277 288 300 312 337 13 20 14 15 20 19 19 22 23 21 22 25 25 22 21 26 34 42 49 56 63 72 82 89
191 189 183 178 176 174 172 170 169 167 165 164 163 161 161 163 164 164 166 167 167 167 168 167 167 172 178 186 200 222 246 264 275 282 290 298 305 307 309 311 311 313 317 316 307 298 287 277 276 270 253 250 256 264 274 284 288 286 292 299 312 351 14 10 1 359 359 1 7 9 8 13 20 24 24 22 20 24 32 41 49 56 62 70 79
177 176 177 176 172 168 163 161 160 159 158 159 159 159 159 162 163 164 167 170 171 174 176 178 182 190 200 212 228 242 254 262 269 285 304 318 325 329 333 335 330 326 328 321 301 290 287 283 282 283 275 269 274 285 289 290 285 273 269 272 285 315 347 355 350 347 344 344 347 346 346 352 3 12 16 16 17 21 27 31 36 44 52 59 67
169 166 166 166 166 164 162 159 158 158 157 158 160 161 162 164 167 169 172 175 178 181 185 189 197 207 215 223 230 236 241 247 268 304 325 332 335 340 344 341 324 315 320 314 298 293 296 291 285 284 283 280 283 291 291 283 269 259 257 259 270 293 316 328 336 339 338 337 338 338 335 338 344 347 349 351 357 9 22 24 25 32 41 49 56
152 154 154 154 154 154 155 157 159 160 159 159 159 160 160 163 166 169 172 174 177 181 185 190 195 201 204 204 205 206 206 220 255 275 271 257 269 306 323 324 308 299 305 307 301 299 300 296 292 292 287 280 277 277 273 265 258 256 258 261 270 293 313 322 328 334 335 332 334 336 336 336 337 337 337 336 335 339 347 356 4 17 33 43 51
114 125 134 139 140 139 139 141 144 147 149 151 152 151 151 152 154 155 157 160 161 161 162 161 157 153 149 145 145 151 172 196 213 220 220 224 245 274 294 303 297 289 289 291 293 297 301 299 296 294 290 284 280 275 270 269 267 267 267 267 270 288 312 322 324 326 328 329 329 332 334 335 335 335 334 333 330 327 325 324 324 326 332 347 10
79 85 98 110 116 118 118 121 122 123 126 130 132 131 130 130 128 126 125 126 126 124 123 124 125 125 126 128 132 141 166 195 213 222 229 240 253 261 268 275 277 276 278 280 282 287 293 293 289 285 281 278 275 274 275 277 278 279 281 282 284 292 305 312 313 315 319 323 324 324 325 328 332 334 334 332 330 328 326 324 320 315 310 307 305
87 81 80 85 93 97 98 99 100 100 100 101 102 103 104 104 104 104 105 106 105 105 105 106 108 111 114 116 118 120 127 139 172 222 242 256 263 263 266 271 273 274 277 279 279 281 284 284 281 279 277 274 272 273 275 278 281 284 287 291 294 298 304 306 307 310 316 322 324 324 322 322 324 327 330 331 330 327 324 322 321 320 318 316 314